Weather History for KCRP - November, 2012

Change the Weather History Date:

Tuesday, November 27, 2012

  Actual Average Record
Temperature  
Mean Temperature 63 °F 62 °F  
Max Temperature 72 °F 72 °F 93 °F (1994)
Min Temperature 54 °F 53 °F 31 °F (2010)
Degree Days  
Heating Degree Days 2 5  
Month to date heating degree days 25 75  
Since 1 July heating degree days 34 85  
Cooling Degree Days 0 3  
Month to date cooling degree days 156 117  
Year to date cooling degree days 4359 3468  
Growing Degree Days 14 (Base 50)    
Moisture  
Dew Point 48 °F    
Average Humidity 56    
Maximum Humidity 73    
Minimum Humidity 38    
Precipitation  
Precipitation 0.01 in 0.05 in 2.07 in (1913)
Month to date precipitation 0.59 1.83  
Year to date precipitation 18.79 29.79  
Snow  
Snow 0.00 in - - ()
Month to date snowfall 0.0  
Since 1 July snowfall 0.0  
Since 1 September snowfall 0.0  
Snow Depth 0.00 in    
Sea Level Pressure  
Sea Level Pressure 30.25 in    
Wind  
Wind Speed 14 mph (North)    
Max Wind Speed 23 mph    
Max Gust Speed 28 mph    
Visibility 10 miles    
Events Thunderstorm    
T = Trace of Precipitation, MM = Missing Value Source: NWS Daily Summary

Daily Weather History Graph

Daily Weather History Graph

Search for Another Location

Airport or City:

Trip Planner

Search our weather history database for the weather conditions in past years. The results will help you decide how hot, cold, wet, or windy it might be!

Date:

Astronomy

Nov. 27, 2012 Rise Set
Actual Time 7:00 AM CST 5:34 PM CST
Civil Twilight 6:35 AM CST 5:59 PM CST
Nautical Twilight 6:06 AM CST 6:28 PM CST
Astronomical Twilight 5:38 AM CST 6:56 PM CST
Moon 5:05 PM CST (11/27) 6:09 AM CST (11/27)
Length of Visible Light 11h 24m
Length of Day
10h 33m
Waxing Gibbous, 99% of the Moon is Illuminated
Nov 27
Waxing Gibbous
Nov 28
Full
Dec 6
Last Quarter
Dec 13
New
Dec 19
First Quarter

Hourly Weather History & Observations

Time (CST) Temp. Dew Point Humidity Pressure Visibility Wind Dir Wind Speed Gust Speed Precip Events Conditions
12:51 AM 70.0 °F 64.0 °F 81% 30.11 in 10.0 mi SW 5.8 mph - 0.05 in Thunderstorm Thunderstorm
1:31 AM 69.8 °F 64.4 °F 83% 30.09 in 10.0 mi NNE 10.4 mph - N/A   Mostly Cloudy
1:51 AM 70.0 °F 62.1 °F 76% 30.08 in 10.0 mi NE 19.6 mph - N/A   Mostly Cloudy
2:51 AM 70.0 °F 61.0 °F 73% 30.09 in 10.0 mi NNE 17.3 mph - N/A   Scattered Clouds
3:51 AM 64.9 °F 53.1 °F 65% 30.12 in 10.0 mi North 19.6 mph - N/A   Scattered Clouds
4:51 AM 62.1 °F 50.0 °F 65% 30.15 in 10.0 mi North 12.7 mph - N/A   Partly Cloudy
5:51 AM 62.1 °F 48.9 °F 62% 30.18 in 10.0 mi North 16.1 mph - N/A   Mostly Cloudy
6:51 AM 61.0 °F 48.0 °F 62% 30.20 in 10.0 mi NNE 16.1 mph 21.9 mph N/A   Partly Cloudy
7:51 AM 61.0 °F 48.9 °F 64% 30.25 in 10.0 mi North 16.1 mph - N/A   Partly Cloudy
8:51 AM 60.1 °F 46.9 °F 62% 30.30 in 10.0 mi North 20.7 mph - N/A   Partly Cloudy
9:51 AM 60.1 °F 46.0 °F 60% 30.33 in 10.0 mi NNE 20.7 mph 27.6 mph N/A   Partly Cloudy
10:51 AM 63.0 °F 46.0 °F 54% 30.33 in 10.0 mi North 16.1 mph - N/A   Partly Cloudy
11:51 AM 64.9 °F 46.0 °F 50% 30.31 in 10.0 mi NNW 12.7 mph - N/A   Clear
12:51 PM 68.0 °F 45.0 °F 43% 30.29 in 10.0 mi NNW 13.8 mph - N/A   Clear
1:51 PM 70.0 °F 45.0 °F 41% 30.27 in 10.0 mi NNW 10.4 mph - N/A   Clear
2:51 PM 72.0 °F 45.0 °F 38% 30.26 in 10.0 mi North 15.0 mph - N/A   Clear
3:51 PM 71.1 °F 45.0 °F 39% 30.25 in 10.0 mi NNW 16.1 mph - N/A   Clear
4:51 PM 70.0 °F 46.0 °F 42% 30.27 in 10.0 mi NNW 11.5 mph - N/A   Clear
5:51 PM 64.0 °F 46.0 °F 52% 30.28 in 10.0 mi North 9.2 mph - N/A   Clear
6:51 PM 62.1 °F 46.9 °F 58% 30.30 in 10.0 mi North 9.2 mph - N/A   Clear
7:51 PM 60.1 °F 45.0 °F 57% 30.32 in 10.0 mi North 13.8 mph - N/A   Clear
8:51 PM 57.0 °F 44.1 °F 62% 30.33 in 10.0 mi North 11.5 mph - N/A   Clear
9:51 PM 55.0 °F 43.0 °F 64% 30.34 in 10.0 mi NNE 10.4 mph - N/A   Clear
10:51 PM 55.9 °F 42.1 °F 60% 30.35 in 10.0 mi NE 10.4 mph - N/A   Partly Cloudy
11:51 PM 55.0 °F 42.1 °F 62% 30.35 in 10.0 mi NE 10.4 mph - N/A   Partly Cloudy